FW6908 Weather Reports


time (UTC)temp
C
wind
direction
speed
KPH
gust
KPH
rain 1hr
cm
rain 24hr
cm
rain mn
cm
humidity
%
barometer
mb
20260508044044 18 326 1.6 4.8 0.00 0.00 0.00 54 1018.9
20260508043539 18 332 1.6 4.8 0.00 0.00 0.00 57 1018.8
20260508043038 18 342 1.6 4.8 0.00 0.00 0.00 56 1018.7
20260508042537 18 10 1.6 4.8 0.00 0.00 0.00 52 1018.4
20260508042036 18 38 0.0 6.4 0.00 0.00 0.00 53 1018.4
20260508041538 18 12 3.2 6.4 0.00 0.00 0.00 56 1018.4
20260508041035 17 61 3.2 8.0 0.00 0.00 0.00 57 1018.3
20260508040535 17 71 3.2 8.0 0.00 0.00 0.00 61 1018.2
20260508040036 17 360 4.8 8.0 0.00 0.00 0.00 61 1018.2
20260508035534 18 355 3.2 8.0 0.00 0.00 0.00 57 1018.1
20260508035033 18 76 3.2 6.4 0.00 0.00 0.00 55 1017.9
20260508034538 18 67 1.6 4.8 0.00 0.00 0.00 57 1018.0
20260508034032 18 54 1.6 4.8 0.00 0.00 0.00 58 1017.9
20260508033532 18 48 1.6 8.0 0.00 0.00 0.00 59 1018.0
20260508033036 18 17 3.2 8.0 0.00 0.00 0.00 58 1018.0
20260508032533 18 31 3.2 6.4 0.00 0.00 0.00 59 1017.9
20260508032032 17 36 3.2 6.4 0.00 0.00 0.00 60 1018.0
20260508031536 17 11 4.8 6.4 0.00 0.00 0.00 60 1018.1
20260508031034 18 69 1.6 4.8 0.00 0.00 0.00 59 1018.0
20260508030531 18 88 0.0 4.8 0.00 0.00 0.00 57 1017.7
20260508030035 17 74 0.0 8.0 0.00 0.00 0.00 58 1017.7
20260508025535 17 71 4.8 8.0 0.00 0.00 0.00 60 1017.6
20260508025029 17 30 3.2 6.4 0.00 0.00 0.00 61 1018.0
20260508024529 17 46 0.0 4.8 0.00 0.00 0.00 64 1018.0
20260508024029 17 14 1.6 4.8 0.00 0.00 0.00 64 1018.0
20260508023529 17 72 1.6 4.8 0.00 0.00 0.00 60 1018.0
20260508023036 17 71 1.6 6.4 0.00 0.00 0.00 61 1018.1
20260508022528 17 46 1.6 6.4 0.00 0.00 0.00 61 1018.2
20260508022028 17 61 0.0 4.8 0.00 0.00 0.00 62 1018.1
20260508021530 17 59 1.6 4.8 0.00 0.00 0.00 63 1017.9
20260508021028 17 58 1.6 6.4 0.00 0.00 0.00 64 1018.1
20260508020527 17 61 3.2 6.4 0.00 0.00 0.00 65 1018.1
20260508020027 17 29 0.0 6.4 0.00 0.00 0.00 67 1018.2
20260508015527 17 44 3.2 6.4 0.00 0.00 0.00 66 1018.1
20260508015026 17 57 1.6 4.8 0.00 0.00 0.00 66 1018.1
20260508014525 17 57 0.0 3.2 0.00 0.00 0.00 67 1018.1
20260508014023 17 58 0.0 4.8 0.00 0.00 0.00 67 1018.4
20260508013523 17 57 0.0 4.8 0.00 0.00 0.00 67 1018.3
20260508013023 17 52 1.6 4.8 0.00 0.00 0.00 67 1018.4
20260508012525 17 56 1.6 4.8 0.00 0.00 0.00 67 1018.5
20260508012022 17 55 1.6 3.2 0.00 0.00 0.00 67 1018.5
20260508011521 17 54 0.0 3.2 0.00 0.00 0.00 67 1018.6
20260508011021 17 49 0.0 3.2 0.00 0.00 0.00 67 1018.7
20260508010521 17 46 0.0 0.0 0.00 0.00 0.00 67 1018.8
20260508010022 17 44 0.0 0.0 0.00 0.00 0.00 67 1018.8
20260508005520 17 43 0.0 1.6 0.00 0.00 0.00 66 1018.7
20260508005020 17 43 0.0 3.2 0.00 0.00 0.00 67 1018.9
20260508004519 17 34 0.0 3.2 0.00 0.00 0.00 66 1018.9
20260508004020 17 33 0.0 3.2 0.00 0.00 0.00 66 1018.9
20260508003519 17 29 0.0 3.2 0.00 0.00 0.00 66 1018.8
20260508003018 17 26 0.0 3.2 0.00 0.00 0.00 66 1018.8
20260508002518 17 17 0.0 4.8 0.00 0.00 0.00 66 1018.8
20260508002018 17 15 1.6 4.8 0.00 0.00 0.00 66 1018.8
20260508001536 17 14 1.6 6.4 0.00 0.00 0.00 66 1018.9
20260508001017 17 346 0.0 4.8 0.00 0.00 0.00 66 1018.8
20260508000516 17 282 0.0 0.0 0.00 0.00 0.00 66 1018.8
20260508000016 17 279 0.0 3.2 0.00 0.00 0.00 66 1019.0
20260507235516 17 279 0.0 3.2 0.00 0.00 0.00 66 1019.1
20260507235017 17 279 0.0 9.7 0.00 0.00 0.00 66 1019.2
20260507234514 17 279 1.6 9.7 0.00 0.00 0.00 65 1019.3
20260507234014 17 277 3.2 11.3 0.00 0.00 0.00 65 1019.4
20260507233513 17 268 4.8 11.3 0.00 0.00 0.00 65 1019.4
20260507233021 17 271 4.8 6.4 0.00 0.00 0.00 64 1019.6
20260507232511 17 279 3.2 9.7 0.00 0.00 0.00 63 1019.4
20260507232011 17 271 3.2 9.7 0.00 0.00 0.00 63 1019.5
20260507231513 18 282 3.2 4.8 0.00 0.00 0.00 63 1019.6
20260507231010 18 281 0.0 3.2 0.00 0.00 0.00 62 1019.4
20260507230513 18 281 0.0 3.2 0.00 0.00 0.00 62 1019.5
20260507230022 18 282 1.6 4.8 0.00 0.00 0.00 62 1019.5
20260507225508 18 282 1.6 4.8 0.00 0.00 0.00 61 1019.6
20260507225010 18 282 1.6 4.8 0.00 0.00 0.00 61 1019.6
20260507224512 18 284 1.6 6.4 0.00 0.00 0.00 61 1019.7
20260507224007 18 284 3.2 8.0 0.00 0.00 0.00 61 1019.7
20260507223507 18 289 3.2 8.0 0.00 0.00 0.00 60 1019.7
20260507223006 18 273 3.2 6.4 0.00 0.00 0.00 60 1019.7
20260507222505 18 281 3.2 6.4 0.00 0.00 0.00 59 1019.7
20260507222005 18 273 3.2 6.4 0.00 0.00 0.00 59 1019.8
20260507221506 18 267 3.2 6.4 0.00 0.00 0.00 59 1019.8
20260507221003 18 271 3.2 9.7 0.00 0.00 0.00 58 1019.9
20260507220503 18 273 4.8 9.7 0.00 0.00 0.00 58 1019.9
20260507220003 18 273 4.8 9.7 0.00 0.00 0.00 57 1019.9
20260507215503 18 265 4.8 9.7 0.00 0.00 0.00 57 1020.0
20260507215100 18 250 4.8 8.0 0.00 0.00 0.00 57 1020.1
20260507214559 18 259 4.8 6.4 0.00 0.00 0.00 56 1020.2
20260507214100 18 268 3.2 6.4 0.00 0.00 0.00 55 1020.2
20260507213601 18 271 3.2 11.3 0.00 0.00 0.00 54 1020.2
20260507213100 18 288 6.4 11.3 0.00 0.00 0.00 54 1020.3
20260507212556 18 267 4.8 9.7 0.00 0.00 0.00 53 1020.4
20260507212056 18 273 3.2 9.7 0.00 0.00 0.00 52 1020.4
20260507211555 18 291 3.2 6.4 0.00 0.00 0.00 53 1020.3
20260507211054 18 282 3.2 6.4 0.00 0.00 0.00 52 1020.4
20260507210554 18 269 3.2 6.4 0.00 0.00 0.00 52 1020.3
20260507210053 18 240 1.6 4.8 0.00 0.00 0.00 52 1020.4
20260507205553 18 238 3.2 4.8 0.00 0.00 0.00 51 1020.4
20260507205053 18 161 0.0 3.2 0.00 0.00 0.00 50 1020.3
20260507204552 19 156 1.6 3.2 0.00 0.00 0.00 50 1020.2
20260507204052 19 154 0.0 3.2 0.00 0.00 0.00 50 1020.3
20260507203552 18 137 0.0 3.2 0.00 0.00 0.00 51 1020.3
20260507203051 18 137 1.6 4.8 0.00 0.00 0.00 51 1020.3
20260507202551 18 136 0.0 4.8 0.00 0.00 0.00 50 1020.3
20260507202051 18 142 1.6 4.8 0.00 0.00 0.00 50 1020.4
20260507201551 18 134 1.6 6.4 0.00 0.00 0.00 50 1020.4
20260507201051 18 136 1.6 11.3 0.00 0.00 0.00 50 1020.3
20260507200551 18 127 3.2 11.3 0.00 0.00 0.00 50 1020.3
20260507200050 18 134 3.2 11.3 0.00 0.00 0.00 49 1020.2
20260507195549 18 136 6.4 11.3 0.00 0.00 0.00 49 1020.1
20260507195052 18 126 4.8 11.3 0.00 0.00 0.00 49 1020.1
20260507194548 19 136 4.8 11.3 0.00 0.00 0.00 49 1020.2
20260507194046 19 121 3.2 11.3 0.00 0.00 0.00 49 1020.0
20260507193546 19 94 3.2 11.3 0.00 0.00 0.00 49 1020.0
20260507193047 19 94 4.8 9.7 0.00 0.00 0.00 49 1019.8
20260507192547 19 68 0.0 0.0 0.00 0.00 0.00 49 1020.0
20260507192046 19 65 0.0 3.2 0.00 0.00 0.00 49 1020.0
20260507191546 19 47 0.0 4.8 0.00 0.00 0.00 50 1019.9
20260507191047 19 46 1.6 4.8 0.00 0.00 0.00 50 1019.7
20260507190545 19 40 3.2 6.4 0.00 0.00 0.00 49 1019.7
20260507190044 20 34 3.2 6.4 0.00 0.00 0.00 50 1019.9
20260507185644 20 19 1.6 6.4 0.00 0.00 0.00 50 1019.9
20260507185044 20 314 1.6 6.4 0.00 0.00 0.00 49 1019.9
20260507184543 20 301 1.6 6.4 0.00 0.00 0.00 49 1019.9
20260507184043 20 321 3.2 6.4 0.00 0.00 0.00 50 1019.8
20260507183543 20 318 3.2 6.4 0.00 0.00 0.00 50 1019.8
20260507183051 20 277 3.2 6.4 0.00 0.00 0.00 50 1019.8
20260507182543 20 299 1.6 11.3 0.00 0.00 0.00 51 1019.7
20260507182041 20 298 4.8 12.9 0.00 0.00 0.00 51 1019.8
20260507181542 20 268 6.4 12.9 0.00 0.00 0.00 51 1019.9
20260507181042 20 319 3.2 9.7 0.00 0.00 0.00 50 1019.8
20260507180545 20 275 4.8 9.7 0.00 0.00 0.00 49 1019.7
20260507180050 20 286 3.2 11.3 0.00 0.00 0.00 49 1019.8
20260507175541 20 267 4.8 14.5 0.00 0.00 0.00 48 1019.7
20260507175041 20 272 11.3 14.5 0.00 0.00 0.00 47 1019.7
20260507174541 20 258 6.4 14.5 0.00 0.00 0.00 48 1019.5
20260507174040 20 294 6.4 14.5 0.00 0.00 0.00 47 1019.6
20260507173543 20 269 8.0 14.5 0.00 0.00 0.00 47 1019.7
20260507173055 20 273 8.0 17.7 0.00 0.00 0.00 47 1019.8
20260507172539 20 268 12.9 17.7 0.00 0.00 0.00 46 1019.8
20260507172040 21 269 8.0 12.9 0.00 0.00 0.00 46 1019.7
20260507171539 21 271 8.0 20.9 0.00 0.00 0.00 43 1019.7
20260507171040 21 250 11.3 20.9 0.00 0.00 0.00 38 1019.6
20260507170539 21 258 9.7 14.5 0.00 0.00 0.00 38 1019.4
20260507170049 21 277 4.8 9.7 0.00 0.00 0.00 39 1019.3
20260507165539 21 264 1.6 8.0 0.00 0.00 0.00 39 1019.1
20260507165039 21 256 4.8 8.0 0.00 0.00 0.00 39 1019.1
20260507164538 21 338 3.2 9.7 0.00 0.00 0.00 40 1019.0
20260507164038 21 257 3.2 9.7 0.00 0.00 0.00 39 1018.9
20260507163539 21 250 3.2 8.0 0.00 0.00 0.00 38 1019.1
20260507163038 21 220 4.8 12.9 0.00 0.00 0.00 39 1019.0
20260507162539 22 226 8.0 19.3 0.00 0.00 0.00 38 1019.1
20260507162038 22 185 9.7 19.3 0.00 0.00 0.00 37 1019.1
20260507161540 22 217 11.3 19.3 0.00 0.00 0.00 37 1019.1
20260507161037 21 251 8.0 16.1 0.00 0.00 0.00 38 1019.2
20260507160538 22 263 8.0 16.1 0.00 0.00 0.00 38 1019.2
20260507160038 22 267 8.0 16.1 0.00 0.00 0.00 37 1019.3
20260507155537 21 269 9.7 14.5 0.00 0.00 0.00 41 1019.2
20260507155040 22 223 6.4 17.7 0.00 0.00 0.00 39 1019.3
20260507154537 22 244 11.3 19.3 0.00 0.00 0.00 37 1019.4
20260507154036 22 215 8.0 19.3 0.00 0.00 0.00 41 1019.4
20260507153536 22 246 4.8 17.7 0.00 0.00 0.00 38 1019.5
20260507153035 22 244 14.5 19.3 0.00 0.00 0.00 37 1019.6
20260507152535 22 237 8.0 19.3 0.00 0.00 0.00 39 1019.6
20260507152034 22 235 12.9 17.7 0.00 0.00 0.00 37 1019.7
20260507151535 22 201 12.9 17.7 0.00 0.00 0.00 37 1019.7
20260507151034 22 215 11.3 20.9 0.00 0.00 0.00 37 1019.6
20260507150534 22 251 14.5 20.9 0.00 0.00 0.00 37 1019.6
20260507150034 22 241 11.3 20.9 0.00 0.00 0.00 40 1019.6
20260507145532 22 271 11.3 20.9 0.00 0.00 0.00 41 1019.6
20260507145032 22 251 11.3 20.9 0.00 0.00 0.00 37 1019.5
20260507144532 22 249 16.1 20.9 0.00 0.00 0.00 35 1019.6
20260507144032 23 198 8.0 19.3 0.00 0.00 0.00 35 1019.5
20260507143531 23 214 11.3 19.3 0.00 0.00 0.00 36 1019.6
20260507143031 22 225 12.9 19.3 0.00 0.00 0.00 36 1019.6
20260507142531 23 234 9.7 25.7 0.00 0.00 0.00 36 1019.6
20260507142030 23 202 12.9 27.4 0.00 0.00 0.00 36 1019.5
20260507141531 23 240 17.7 32.2 0.00 0.00 0.00 33 1019.5
20260507141032 23 230 19.3 32.2 0.00 0.00 0.00 34 1019.4
20260507140529 23 206 12.9 25.7 0.00 0.00 0.00 35 1019.2
20260507140034 23 184 14.5 22.5 0.00 0.00 0.00 33 1019.2
20260507135528 23 158 16.1 20.9 0.00 0.00 0.00 34 1019.1
20260507135028 23 254 12.9 30.6 0.00 0.00 0.00 33 1019.2
20260507134527 23 229 14.5 29.0 0.00 0.00 0.00 34 1018.9
20260507134026 23 193 14.5 22.5 0.00 0.00 0.00 32 1019.0
20260507133525 23 259 11.3 22.5 0.00 0.00 0.00 39 1018.9
20260507133024 23 249 11.3 19.3 0.00 0.00 0.00 38 1018.8
20260507132522 23 219 12.9 24.1 0.00 0.00 0.00 41 1018.9
20260507132022 22 261 16.1 19.3 0.00 0.00 0.00 41 1018.9
20260507131521 23 262 12.9 19.3 0.00 0.00 0.00 44 1019.0
20260507131024 22 238 12.9 19.3 0.00 0.00 0.00 47 1019.0
20260507130520 22 234 11.3 24.1 0.00 0.00 0.00 48 1019.1
20260507130020 22 246 14.5 24.1 0.00 0.00 0.00 50 1019.1
20260507125520 21 288 14.5 25.7 0.00 0.00 0.00 51 1019.3
20260507125019 21 269 17.7 25.7 0.00 0.00 0.00 50 1019.3
20260507124519 22 261 16.1 22.5 0.00 0.00 0.00 49 1019.3
20260507124019 22 248 16.1 22.5 0.00 0.00 0.00 48 1019.4
20260507123519 22 219 11.3 22.5 0.00 0.00 0.00 48 1019.4
20260507123022 22 275 16.1 22.5 0.00 0.00 0.00 48 1019.4
20260507122521 22 211 11.3 22.5 0.00 0.00 0.00 50 1019.5
20260507122020 22 230 14.5 22.5 0.00 0.00 0.00 52 1019.5
20260507121517 22 277 14.5 25.7 0.00 0.00 0.00 50 1019.6
20260507121017 22 269 14.5 24.1 0.00 0.00 0.00 51 1019.6
20260507120517 22 262 14.5 20.9 0.00 0.00 0.00 51 1019.7
20260507120016 22 269 12.9 20.9 0.00 0.00 0.00 51 1019.6
20260507115519 22 240 14.5 20.9 0.00 0.00 0.00 52 1019.6
20260507115014 22 267 12.9 24.1 0.00 0.00 0.00 52 1019.5
20260507114514 22 209 12.9 25.7 0.00 0.00 0.00 53 1019.7
20260507114014 22 260 17.7 25.7 0.00 0.00 0.00 53 1019.7
20260507113514 23 263 16.1 25.7 0.00 0.00 0.00 51 1019.7
20260507113014 23 279 14.5 25.7 0.00 0.00 0.00 52 1019.7
20260507112513 22 252 14.5 29.0 0.00 0.00 0.00 52 1019.6
20260507112013 22 251 22.5 29.0 0.00 0.00 0.00 51 1019.9
20260507111516 23 253 17.7 25.7 0.00 0.00 0.00 52 1019.8
20260507111012 22 213 19.3 22.5 0.00 0.00 0.00 52 1019.8
20260507110510 23 230 17.7 25.7 0.00 0.00 0.00 52 1019.7
20260507110010 22 225 16.1 24.1 0.00 0.00 0.00 56 1019.5
20260507105510 23 199 12.9 24.1 0.00 0.00 0.00 54 1019.7
20260507105009 22 265 11.3 27.4 0.00 0.00 0.00 57 1019.7
20260507104508 22 228 19.3 27.4 0.00 0.00 0.00 54 1019.6
20260507104107 23 250 19.3 25.7 0.00 0.00 0.00 52 1019.6
20260507103506 23 220 16.1 22.5 0.00 0.00 0.00 47 1019.5
20260507103006 22 254 12.9 17.7 0.00 0.00 0.00 55 1019.2
20260507102506 23 272 12.9 19.3 0.00 0.00 0.00 53 1019.2
20260507102007 23 219 11.3 19.3 0.00 0.00 0.00 53 1019.2
20260507101507 23 217 11.3 20.9 0.00 0.00 0.00 51 1019.3
20260507101006 22 262 16.1 22.5 0.00 0.00 0.00 56 1019.3
20260507100506 22 275 12.9 22.5 0.00 0.00 0.00 55 1019.3
20260507100011 22 271 12.9 19.3 0.00 0.00 0.00 55 1019.3
20260507095508 23 219 12.9 17.7 0.00 0.00 0.00 51 1019.3
20260507095004 23 243 11.3 17.7 0.00 0.00 0.00 51 1019.3
20260507094502 23 212 11.3 17.7 0.00 0.00 0.00 49 1019.3
20260507094002 23 275 9.7 17.7 0.00 0.00 0.00 48 1019.3
20260507093502 23 215 14.5 19.3 0.00 0.00 0.00 46 1019.3
20260507093006 23 260 12.9 19.3 0.00 0.00 0.00 45 1019.2
20260507092502 23 267 8.0 16.1 0.00 0.00 0.00 45 1019.3
20260507092059 23 259 9.7 14.5 0.00 0.00 0.00 46 1019.2
20260507091558 22 261 8.0 14.5 0.00 0.00 0.00 47 1019.3
20260507091058 22 263 12.9 16.1 0.00 0.00 0.00 47 1019.4
20260507090557 22 265 11.3 16.1 0.00 0.00 0.00 47 1019.2
20260507090100 22 246 8.0 14.5 0.00 0.00 0.00 46 1019.2
20260507085555 22 260 6.4 12.9 0.00 0.00 0.00 47 1019.1
20260507085056 22 221 8.0 12.9 0.00 0.00 0.00 48 1019.1
20260507084604 22 260 8.0 14.5 0.00 0.00 0.00 47 1019.2
20260507084052 22 212 9.7 14.5 0.00 0.00 0.00 47 1019.4
20260507083552 22 238 8.0 12.9 0.00 0.00 0.00 48 1019.5
20260507083052 22 227 6.4 12.9 0.00 0.00 0.00 47 1019.4
20260507082550 22 215 6.4 12.9 0.00 0.00 0.00 46 1019.4
20260507082050 22 208 6.4 12.9 0.00 0.00 0.00 47 1019.4
20260507081550 21 269 4.8 12.9 0.00 0.00 0.00 48 1019.3
20260507081049 21 233 8.0 14.5 0.00 0.00 0.00 47 1019.3
20260507080551 21 256 6.4 11.3 0.00 0.00 0.00 49 1019.4
20260507080053 21 200 8.0 14.5 0.00 0.00 0.00 50 1019.3
20260507075547 21 246 6.4 16.1 0.00 0.00 0.00 51 1019.4
20260507075046 21 273 11.3 16.1 0.00 0.00 0.00 52 1019.3
20260507074545 21 266 8.0 16.1 0.00 0.00 0.00 52 1019.3
20260507074044 21 247 9.7 16.1 0.00 0.00 0.00 53 1019.3
20260507073543 21 250 9.7 14.5 0.00 0.00 0.00 54 1019.1
20260507073044 21 222 6.4 12.9 0.00 0.00 0.00 54 1019.1
20260507072543 21 231 3.2 12.9 0.00 0.00 0.00 53 1019.1
20260507072041 21 230 4.8 12.9 0.00 0.00 0.00 53 1019.2
20260507071540 20 247 8.0 12.9 0.00 0.00 0.00 53 1019.2
20260507071039 21 198 4.8 12.9 0.00 0.00 0.00 53 1019.2
20260507070539 20 182 4.8 12.9 0.00 0.00 0.00 54 1019.4
20260507070058 20 231 6.4 11.3 0.00 0.00 0.00 53 1019.4
20260507065537 20 238 6.4 14.5 0.00 0.00 0.00 53 1019.4
20260507065036 20 219 8.0 14.5 0.00 0.00 0.00 52 1019.4
20260507064536 20 197 8.0 16.1 0.00 0.00 0.00 53 1019.4
20260507064033 20 232 8.0 17.7 0.00 0.00 0.00 53 1019.4
20260507063531 20 261 8.0 12.9 0.00 0.00 0.00 53 1019.3
20260507063034 20 205 8.0 12.9 0.00 0.00 0.00 54 1019.2
20260507062529 20 248 6.4 12.9 0.00 0.00 0.00 53 1019.2
20260507062028 20 209 8.0 12.9 0.00 0.00 0.00 53 1019.2
20260507061528 20 213 4.8 9.7 0.00 0.00 0.00 52 1019.1
20260507061026 20 238 4.8 8.0 0.00 0.00 0.00 53 1019.1
20260507060525 20 233 3.2 6.4 0.00 0.00 0.00 53 1019.0
20260507060024 20 269 3.2 6.4 0.00 0.00 0.00 53 1018.8
20260507055523 20 283 1.6 6.4 0.00 0.00 0.00 53 1018.8
20260507055021 19 28 1.6 8.0 0.00 0.00 0.00 54 1018.7
20260507054519 18 11 3.2 9.7 0.00 0.00 0.00 57 1018.7
20260507054022 18 355 4.8 9.7 0.00 0.00 0.00 58 1018.6
20260507053516 18 355 4.8 8.0 0.00 0.00 0.00 58 1018.5
20260507053016 18 355 1.6 8.0 0.00 0.00 0.00 59 1018.5
20260507052514 18 360 1.6 8.0 0.00 0.00 0.00 60 1018.5
20260507052012 17 13 3.2 6.4 0.00 0.00 0.00 60 1018.4
20260507051511 17 11 3.2 8.0 0.00 0.00 0.00 60 1018.4
20260507051010 17 58 1.6 9.7 0.00 0.00 0.00 61 1018.4
20260507050508 16 30 1.6 9.7 0.00 0.00 0.00 62 1018.4
20260507050024 16 73 4.8 9.7 0.00 0.00 0.00 62 1018.4
20260507045507 16 56 4.8 9.7 0.00 0.00 0.00 64 1018.4
20260507045005 15 17 4.8 8.0 0.00 0.00 0.00 65 1018.5
20260507044503 15 15 3.2 6.4 0.00 0.00 0.00 67 1018.5